Anderson, SC

8:52 AM EST on February 08, 2016 (GMT -0500)
Anderson Regional

Weather History for KAND - May, 2013

Change the Weather History Date:

Thursday, May 2, 2013

  Actual Average Record
Temperature  
Mean Temperature 61 °F -  
Max Temperature 64 °F 78 °F 90 °F (1959)
Min Temperature 59 °F 54 °F 38 °F (1963)
Degree Days  
Heating Degree Days 4    
Growing Degree Days 11 (Base 50)    
Moisture  
Dew Point 57 °F    
Average Humidity 87    
Maximum Humidity 93    
Minimum Humidity 82    
Precipitation  
Precipitation 0.00 in - - ()
Sea Level Pressure  
Sea Level Pressure 30.21 in    
Wind  
Wind Speed 12 mph (ENE)    
Max Wind Speed 16 mph    
Max Gust Speed 24 mph    
Visibility 10 miles    
Events Rain    
Averages and records for this station are not official NWS values.
T = Trace of Precipitation, MM = Missing Value Source: NWS Daily Summary

Daily Weather History Graph

Daily Weather History Graph

Search for Another Location

Airport or City:

Trip Planner

Search our weather history database for the weather conditions in past years. The results will help you decide how hot, cold, wet, or windy it might be!

Date:

Astronomy

May. 02, 2013 Rise Set
Actual Time 6:39 AM EDT 8:16 PM EDT
Civil Twilight 6:12 AM EDT 8:43 PM EDT
Nautical Twilight 5:40 AM EDT 9:15 PM EDT
Astronomical Twilight 5:06 AM EDT 9:50 PM EDT
Moon 2:07 AM EDT (5/2) 1:22 PM EDT (5/2)
Length of Visible Light 14h 30m
Length of Day
13h 36m
Waning Gibbous, 48% of the Moon is Illuminated
May 2
Waning Gibbous
May 9
New
May 18
First Quarter
May 25
Full
May 31
Last Quarter

Hourly Weather History & Observations

Time (EDT) Temp. Dew Point Humidity Pressure Visibility Wind Dir Wind Speed Gust Speed Precip Events Conditions
12:56 AM 60.1 °F 55.9 °F 86% 30.23 in 10.0 mi ENE 10.4 mph - N/A   Scattered Clouds
1:04 AM 60.8 °F 55.4 °F 82% 30.24 in 10.0 mi ENE 10.4 mph - N/A   Mostly Cloudy
1:17 AM 60.8 °F 55.4 °F 82% 30.24 in 10.0 mi ENE 10.4 mph - N/A   Overcast
1:56 AM 60.1 °F 55.9 °F 86% 30.22 in 10.0 mi ENE 12.7 mph - N/A   Overcast
2:38 AM 60.8 °F 55.4 °F 82% 30.21 in 10.0 mi NE 12.7 mph - N/A   Overcast
2:56 AM 60.1 °F 55.9 °F 86% 30.20 in 10.0 mi ENE 15.0 mph - N/A   Overcast
3:56 AM 60.1 °F 55.9 °F 86% 30.19 in 10.0 mi ENE 16.1 mph 24.2 mph N/A   Overcast
4:56 AM 59.0 °F 55.9 °F 90% 30.19 in 10.0 mi ENE 13.8 mph 20.7 mph N/A   Overcast
5:23 AM 59.0 °F 55.4 °F 88% 30.20 in 10.0 mi ENE 12.7 mph 18.4 mph N/A   Overcast
5:56 AM 59.0 °F 55.9 °F 90% 30.19 in 10.0 mi ENE 12.7 mph - N/A   Overcast
6:56 AM 59.0 °F 55.9 °F 90% 30.21 in 10.0 mi ENE 15.0 mph 20.7 mph N/A   Overcast
7:56 AM 59.0 °F 55.9 °F 90% 30.21 in 10.0 mi NE 13.8 mph 18.4 mph N/A   Overcast
8:56 AM 59.0 °F 57.0 °F 93% 30.22 in 10.0 mi ENE 15.0 mph 20.7 mph N/A   Overcast
9:56 AM 60.1 °F 57.0 °F 90% 30.23 in 10.0 mi ENE 15.0 mph 18.4 mph N/A   Overcast
10:56 AM 61.0 °F 57.9 °F 90% 30.24 in 10.0 mi ENE 16.1 mph - N/A   Overcast
11:19 AM 60.8 °F 57.2 °F 88% 30.25 in 10.0 mi ENE 15.0 mph - N/A   Overcast
11:56 AM 62.1 °F 57.0 °F 84% 30.25 in 10.0 mi ENE 11.5 mph - N/A   Overcast
12:56 PM 63.0 °F 57.9 °F 84% 30.25 in 10.0 mi East 11.5 mph - N/A   Overcast
1:13 PM 62.6 °F 57.2 °F 82% 30.26 in 10.0 mi East 12.7 mph - N/A   Overcast
1:26 PM 62.6 °F 57.2 °F 82% 30.25 in 10.0 mi ENE 11.5 mph 21.9 mph 0.00 in Rain Light Rain
1:56 PM 63.0 °F 57.9 °F 84% 30.23 in 10.0 mi ENE 13.8 mph - 0.00 in   Overcast
2:10 PM 62.6 °F 57.2 °F 82% 30.25 in 10.0 mi NE 12.7 mph 20.7 mph N/A   Overcast
2:19 PM 60.8 °F 57.2 °F 88% 30.25 in 10.0 mi NE 13.8 mph - N/A   Overcast
2:56 PM 61.0 °F 57.9 °F 90% 30.23 in 9.0 mi NE 11.5 mph - N/A   Overcast
3:56 PM 62.1 °F 57.9 °F 86% 30.21 in 10.0 mi NE 12.7 mph 19.6 mph N/A   Overcast
4:56 PM 60.1 °F 57.9 °F 93% 30.20 in 4.0 mi ENE 11.5 mph - 0.00 in Rain Light Rain
5:14 PM 60.8 °F 57.2 °F 88% 30.21 in 10.0 mi NE 12.7 mph - N/A   Overcast
5:48 PM 60.8 °F 57.2 °F 88% 30.20 in 10.0 mi NE 12.7 mph - N/A   Overcast
5:56 PM 61.0 °F 57.9 °F 90% 30.19 in 10.0 mi NE 11.5 mph - N/A   Overcast
6:56 PM 61.0 °F 57.9 °F 90% 30.19 in 6.0 mi ENE 10.4 mph 17.3 mph N/A   Overcast
7:30 PM 62.6 °F 57.2 °F 82% 30.20 in 10.0 mi ENE 16.1 mph 20.7 mph N/A   Overcast
7:56 PM 61.0 °F 57.0 °F 87% 30.19 in 10.0 mi ENE 11.5 mph 18.4 mph N/A   Scattered Clouds
8:27 PM 60.8 °F 57.2 °F 88% 30.20 in 10.0 mi NE 9.2 mph - N/A   Overcast
8:44 PM 60.8 °F 57.2 °F 88% 30.20 in 10.0 mi NE 9.2 mph - N/A   Overcast
8:56 PM 61.0 °F 57.0 °F 87% 30.19 in 10.0 mi ENE 9.2 mph - N/A   Overcast
9:07 PM 60.8 °F 57.2 °F 88% 30.20 in 10.0 mi NE 11.5 mph 18.4 mph N/A   Overcast
9:56 PM 61.0 °F 57.0 °F 87% 30.20 in 10.0 mi NE 10.4 mph 17.3 mph N/A   Overcast
10:06 PM 60.8 °F 57.2 °F 88% 30.22 in 10.0 mi ENE 10.4 mph - N/A   Overcast
10:56 PM 60.1 °F 55.9 °F 86% 30.19 in 10.0 mi ENE 9.2 mph - N/A   Overcast
11:09 PM 60.8 °F 57.2 °F 88% 30.21 in 9.0 mi ENE 11.5 mph - N/A   Overcast
11:28 PM 60.8 °F 57.2 °F 88% 30.20 in 10.0 mi NE 9.2 mph - N/A   Overcast
11:36 PM 60.8 °F 57.2 °F 88% 30.20 in 10.0 mi NE 12.7 mph - N/A   Overcast
11:52 PM 60.8 °F 57.2 °F 88% 30.20 in 10.0 mi NE 10.4 mph - N/A   Overcast
11:56 PM 60.1 °F 55.9 °F 86% 30.19 in 10.0 mi NE 8.1 mph 16.1 mph N/A   Overcast